Temp
73 76 81 82 82 81 82 82 83 83 83 83 83 83 83 83 83 83 83 83 83 84 84 84 84 84 84 85 84 84 83 83 83 83 83 82 82 82 82 83 82 83 82
74 76 81 82 83 83 82 83 82 83 83 83 83 83 83 83 83 83 83 84 84 84 84 84 84 84 84 83 83 83 83 83 83 82 83 83 83 83 82 82 82 83 82
75 76 79 81 82 82 82 82 82 83 83 83 83 83 83 83 83 84 84 84 83 84 84 84 84 84 83 83 84 83 83 83 83 83 82 81 82 83 83 83 83 82 82
74 75 78 81 82 82 82 83 83 83 83 83 83 83 83 83 83 84 84 84 84 83 84 84 84 84 84 84 83 83 83 83 82 82 81 82 84 83 82 82 82 82 81
74 74 77 82 81 81 81 82 83 83 83 83 83 83 83 83 84 84 84 84 84 84 83 84 85 84 83 83 83 83 83 83 82 81 79 79 81 83 82 82 82 81 81
74 75 80 82 83 82 81 82 82 83 83 83 84 84 83 83 84 84 84 84 84 84 83 83 84 84 84 83 83 83 83 83 82 79 78 80 79 82 82 82 82 81 81
74 75 79 82 82 82 82 83 83 83 83 83 84 84 84 84 84 84 84 84 83 83 83 83 84 83 83 83 83 82 82 83 81 78 78 78 79 81 82 82 81 81 81
75 75 78 82 82 83 83 83 83 83 83 84 84 84 84 84 83 83 83 83 83 83 83 83 83 83 83 83 83 82 83 83 81 79 78 78 78 81 82 82 81 81 81
77 76 77 78 81 83 83 83 83 84 84 84 84 84 84 84 83 83 83 83 83 83 83 83 83 83 83 82 82 83 83 82 78 79 80 78 78 81 82 81 81 81 81
75 76 76 76 79 81 82 83 83 83 84 84 84 84 84 84 84 83 82 82 83 83 83 83 83 83 82 82 82 82 83 82 80 80 80 79 78 81 82 82 81 81 80
74 73 75 77 76 76 79 82 83 84 84 85 84 85 83 79 80 81 81 83 83 83 83 83 83 82 82 82 82 82 82 80 79 80 80 78 79 81 82 81 81 81 81
72 73 74 76 75 76 81 79 78 80 80 79 79 79 78 78 77 80 81 83 83 83 83 83 82 82 82 79 79 80 79 80 79 80 79 79 79 81 82 81 81 81 81
72 75 74 75 75 75 77 76 76 77 77 77 77 77 77 76 77 77 76 78 79 81 79 81 79 78 77 77 78 78 79 80 80 81 81 79 80 81 82 81 81 81 81
71 74 73 74 74 75 75 76 77 76 76 76 76 76 75 74 74 75 75 76 76 77 77 77 76 77 76 76 77 78 78 80 80 79 79 80 80 81 82 82 81 81 81
71 73 73 73 73 74 74 74 75 75 76 77 76 76 75 75 74 74 75 75 76 76 76 75 75 75 75 76 76 77 78 79 80 79 78 80 81 80 81 82 82 81 81
72 72 73 73 73 73 73 73 73 74 76 75 75 76 75 75 74 74 74 75 75 75 76 75 75 75 74 75 76 77 78 79 80 80 80 79 81 80 81 82 81 81 82
73 74 72 72 73 72 73 73 72 73 74 74 74 75 75 74 74 75 74 74 75 75 75 74 75 75 74 75 75 76 77 78 79 80 80 79 81 81 80 81 81 81 81
73 72 73 77 74 72 73 73 73 73 73 74 74 74 75 75 75 74 74 74 75 74 74 74 74 74 74 74 74 75 76 77 78 78 80 80 79 82 81 81 81 81 81
74 72 72 74 74 73 73 73 73 73 73 74 74 75 75 76 75 75 75 75 75 75 74 74 73 72 73 73 74 75 75 75 76 80 78 79 79 80 80 80 80 80 81
74 74 73 74 73 73 73 73 73 73 73 74 74 75 76 76 76 76 76 74 75 74 73 74 72 74 73 74 76 76 75 76 76 75 76 80 79 79 80 79 80 82 81
74 72 71 72 72 72 71 71 71 72 74 73 74 75 75 75 75 75 76 75 74 74 74 73 73 72 73 74 72 74 74 76 77 76 77 78 78 79 79 79 79 80 81
74 73 71 71 72 72 71 72 74 73 73 75 75 74 76 76 75 75 75 75 74 73 72 72 72 71 71 72 72 69 69 72 75 77 77 77 77 78 79 79 79 78 79
73 72 73 71 71 73 73 72 72 72 73 71 72 73 75 76 76 75 75 75 74 74 72 72 73 72 72 70 71 71 67 65 67 74 76 76 76 76 77 78 79 79 79
74 74 72 72 72 72 74 72 73 72 72 73 73 72 71 75 75 76 75 75 75 75 73 74 74 73 71 72 69 71 72 71 68 67 72 75 76 75 76 75 76 77 78
74 74 74 73 72 73 74 74 71 71 71 72 72 73 73 72 75 76 76 75 74 73 74 74 73 72 74 75 69 69 70 70 70 68 70 69 72 76 75 77 79 78 78
75 75 75 72 72 72 72 73 72 72 73 71 71 71 72 72 72 74 76 75 75 73 73 74 73 72 72 73 72 70 71 71 69 68 67 70 70 76 76 77 76 77 78
MSLP
1013.49 1013.10 1013.08 1013.19 1013.46 1013.78 1014.10 1014.39 1014.55 1014.78 1015.16 1015.51 1015.76 1016.11 1016.44 1016.65 1016.72 1016.96 1017.19 1017.26 1017.33 1017.44 1017.62 1017.79 1017.80 1017.97 1017.90 1017.90 1018.06 1018.37 1018.76 1018.92 1019.13 1019.32 1019.53 1019.68 1019.76 1019.93 1020.00 1020.02 1020.02 1020.10 1020.20
1013.32 1013.31 1013.31 1013.63 1013.82 1014.11 1014.57 1014.82 1015.09 1015.23 1015.46 1015.82 1016.30 1016.55 1016.89 1016.97 1017.21 1017.42 1017.55 1017.63 1017.61 1017.81 1017.95 1018.16 1018.22 1018.43 1018.45 1018.39 1018.71 1018.91 1019.17 1019.25 1019.48 1019.78 1019.73 1019.89 1019.97 1020.13 1020.31 1020.31 1020.30 1020.33 1020.43
1013.59 1013.58 1013.61 1013.96 1014.26 1014.59 1014.87 1015.18 1015.37 1015.62 1015.98 1016.21 1016.62 1017.02 1017.40 1017.59 1017.64 1017.81 1017.98 1018.12 1018.11 1018.18 1018.35 1018.57 1018.68 1018.87 1019.08 1018.94 1019.03 1019.26 1019.47 1019.61 1019.73 1019.92 1020.13 1020.31 1020.24 1020.34 1020.47 1020.48 1020.54 1020.61 1020.68
1013.94 1014.03 1014.00 1014.34 1014.62 1014.99 1015.28 1015.51 1015.70 1016.16 1016.52 1016.77 1016.98 1017.31 1017.59 1018.15 1017.97 1018.13 1018.30 1018.49 1018.56 1018.67 1018.83 1019.05 1019.10 1019.32 1019.46 1019.35 1019.43 1019.68 1019.83 1019.91 1020.09 1020.37 1020.52 1020.58 1020.40 1020.48 1020.68 1020.79 1020.85 1020.99 1021.06
1014.32 1014.47 1014.52 1014.71 1015.08 1015.43 1015.56 1015.92 1016.18 1016.48 1016.97 1017.42 1017.66 1017.69 1017.93 1018.45 1018.43 1018.46 1018.60 1018.78 1018.90 1018.94 1019.23 1019.40 1019.44 1019.61 1019.73 1019.82 1019.86 1019.95 1020.18 1020.27 1020.34 1020.66 1020.81 1020.91 1020.84 1020.70 1020.84 1021.00 1021.11 1021.22 1021.36
1014.81 1014.91 1015.08 1015.04 1015.23 1015.71 1016.06 1016.21 1016.65 1016.96 1017.40 1017.76 1017.97 1018.11 1018.45 1018.62 1018.81 1018.80 1018.95 1019.16 1019.17 1019.28 1019.43 1019.76 1019.92 1020.02 1020.16 1020.25 1020.22 1020.31 1020.33 1020.45 1020.59 1020.96 1021.16 1021.09 1021.17 1021.07 1021.08 1021.17 1021.33 1021.45 1021.56
1015.19 1015.17 1015.25 1015.39 1015.73 1015.96 1016.28 1016.57 1016.99 1017.34 1017.69 1017.92 1018.18 1018.35 1018.66 1018.85 1019.08 1019.06 1019.18 1019.42 1019.42 1019.55 1019.71 1019.97 1020.20 1020.35 1020.46 1020.58 1020.61 1020.58 1020.56 1020.52 1020.71 1021.02 1021.31 1021.43 1021.46 1021.32 1021.33 1021.42 1021.52 1021.67 1021.70
1015.47 1015.54 1015.44 1015.92 1016.18 1016.32 1016.62 1016.95 1017.24 1017.63 1017.88 1018.05 1018.38 1018.54 1018.80 1019.06 1019.26 1019.25 1019.48 1019.63 1019.70 1019.88 1020.00 1020.15 1020.32 1020.53 1020.61 1020.68 1020.83 1020.70 1020.53 1020.44 1020.62 1021.02 1021.43 1021.59 1021.70 1021.56 1021.56 1021.65 1021.71 1021.77 1021.82
1015.59 1015.91 1015.82 1016.25 1016.32 1016.60 1016.89 1017.14 1017.54 1017.77 1017.90 1018.18 1018.51 1018.65 1018.93 1019.31 1019.36 1019.49 1019.65 1019.75 1020.02 1020.13 1020.24 1020.47 1020.62 1020.75 1020.85 1020.89 1020.88 1020.84 1020.66 1020.58 1020.82 1021.03 1021.35 1021.64 1021.74 1021.82 1021.83 1021.91 1021.96 1021.89 1021.92
1015.98 1016.09 1016.40 1016.50 1016.52 1016.79 1017.06 1017.39 1017.68 1017.82 1018.22 1018.40 1018.82 1019.12 1019.30 1019.54 1019.60 1019.64 1019.98 1020.01 1020.20 1020.25 1020.42 1020.65 1020.78 1020.90 1020.89 1021.05 1020.96 1020.94 1020.89 1020.76 1021.00 1021.09 1021.28 1021.51 1021.67 1021.83 1021.92 1021.99 1022.08 1022.13 1022.13
1016.55 1016.66 1016.68 1016.75 1016.95 1017.21 1017.32 1017.55 1017.86 1018.22 1018.43 1018.78 1019.10 1019.30 1019.60 1019.68 1019.72 1020.00 1020.22 1020.19 1020.27 1020.31 1020.49 1020.73 1020.88 1021.11 1021.04 1021.04 1021.11 1021.07 1021.08 1021.17 1021.26 1021.31 1021.27 1021.41 1021.62 1021.74 1021.83 1022.01 1022.07 1022.21 1022.33
1016.89 1017.05 1017.08 1017.01 1017.10 1017.65 1017.72 1018.06 1018.30 1018.47 1018.79 1019.17 1019.39 1019.59 1019.81 1019.87 1020.05 1020.23 1020.28 1020.42 1020.23 1020.45 1020.51 1020.65 1020.94 1021.15 1021.20 1021.26 1021.21 1021.22 1021.35 1021.30 1021.34 1021.30 1021.45 1021.45 1021.50 1021.64 1021.71 1021.88 1022.06 1022.12 1022.22
1016.97 1017.19 1017.27 1017.45 1017.74 1018.03 1018.14 1018.47 1018.67 1018.83 1018.95 1019.21 1019.54 1019.73 1019.87 1020.11 1020.25 1020.44 1020.51 1020.61 1020.51 1020.42 1020.64 1020.72 1021.00 1021.21 1021.30 1021.39 1021.27 1021.27 1021.22 1021.23 1021.14 1021.16 1021.22 1021.26 1021.40 1021.48 1021.58 1021.73 1021.87 1022.04 1022.12
1017.09 1017.15 1017.39 1017.61 1018.00 1018.19 1018.33 1018.47 1018.61 1018.87 1019.14 1019.47 1019.56 1019.78 1020.10 1020.27 1020.34 1020.51 1020.57 1020.60 1020.63 1020.59 1020.81 1020.85 1020.95 1021.12 1021.13 1021.19 1021.19 1021.18 1021.11 1021.02 1021.01 1020.81 1020.82 1020.95 1021.09 1021.27 1021.36 1021.49 1021.65 1021.71 1021.83
1017.07 1017.21 1017.48 1017.62 1017.99 1018.25 1018.44 1018.64 1018.84 1019.03 1019.29 1019.50 1019.71 1019.89 1020.06 1020.33 1020.40 1020.56 1020.63 1020.63 1020.68 1020.78 1020.66 1020.83 1021.06 1021.04 1021.17 1021.04 1020.89 1020.99 1020.94 1020.74 1020.57 1020.49 1020.48 1020.52 1020.63 1020.94 1021.10 1021.08 1021.26 1021.38 1021.53
1016.91 1017.20 1017.48 1017.82 1017.93 1018.09 1018.36 1018.57 1018.90 1019.17 1019.28 1019.52 1019.76 1019.86 1020.07 1020.23 1020.42 1020.60 1020.75 1020.71 1020.84 1020.91 1020.69 1020.84 1021.05 1021.05 1020.96 1021.05 1020.84 1020.79 1020.70 1020.44 1020.20 1020.09 1020.16 1020.23 1020.21 1020.54 1020.65 1020.73 1020.74 1020.88 1021.02
1016.33 1016.83 1017.15 1017.55 1017.79 1018.08 1018.30 1018.52 1018.89 1019.24 1019.36 1019.54 1019.70 1019.89 1020.02 1020.24 1020.34 1020.54 1020.58 1020.64 1020.64 1020.65 1020.67 1020.71 1020.89 1020.92 1020.93 1020.85 1020.81 1020.47 1020.49 1020.26 1019.97 1019.87 1019.89 1019.94 1020.08 1020.06 1020.21 1020.40 1020.45 1020.44 1020.54
1016.32 1016.57 1016.95 1017.25 1017.57 1017.82 1018.01 1018.28 1018.59 1018.94 1019.18 1019.35 1019.52 1019.60 1019.75 1019.87 1020.07 1020.37 1020.47 1020.42 1020.43 1020.59 1020.53 1020.55 1020.69 1020.85 1020.89 1020.87 1020.76 1020.46 1020.24 1020.14 1019.91 1019.61 1019.69 1019.61 1019.66 1019.75 1019.68 1019.70 1019.87 1019.96 1020.07
1015.99 1016.46 1016.84 1017.06 1017.28 1017.56 1017.85 1018.23 1018.53 1018.76 1018.95 1018.98 1019.10 1019.28 1019.39 1019.46 1019.67 1019.89 1020.03 1020.00 1020.19 1020.33 1020.39 1020.48 1020.60 1020.57 1020.63 1020.65 1020.63 1020.35 1020.15 1020.08 1019.80 1019.51 1019.48 1019.41 1019.23 1019.38 1019.36 1019.27 1019.34 1019.36 1019.47
1015.65 1016.16 1016.62 1016.97 1017.26 1017.69 1017.94 1018.37 1018.59 1018.75 1018.68 1018.74 1018.90 1018.99 1019.10 1019.22 1019.32 1019.50 1019.51 1019.61 1019.91 1020.12 1020.23 1020.28 1020.33 1020.42 1020.55 1020.54 1020.56 1020.26 1019.85 1019.52 1019.37 1019.38 1019.21 1018.92 1018.84 1018.78 1018.97 1018.82 1018.91 1018.93 1018.88
1015.41 1015.90 1016.44 1016.78 1017.03 1017.59 1018.16 1018.55 1018.78 1018.61 1018.63 1018.65 1018.54 1018.51 1018.64 1018.86 1018.99 1019.13 1019.08 1019.14 1019.35 1019.63 1019.66 1019.79 1020.10 1020.14 1020.26 1020.36 1020.52 1020.06 1019.57 1019.15 1019.05 1018.94 1018.66 1018.49 1018.40 1018.18 1018.37 1018.33 1018.33 1018.44 1018.43
1014.96 1015.53 1016.15 1016.57 1017.01 1017.44 1017.69 1017.87 1018.02 1018.08 1018.11 1018.06 1018.05 1018.14 1018.12 1018.21 1018.32 1018.39 1018.45 1018.58 1018.65 1019.03 1019.32 1019.52 1019.76 1019.85 1019.85 1019.81 1020.04 1020.31 1019.83 1019.13 1018.63 1018.29 1018.16 1018.11 1017.92 1017.88 1017.92 1017.82 1017.82 1017.84 1017.89
1014.76 1015.12 1015.83 1016.26 1016.59 1016.91 1017.26 1017.63 1017.76 1017.78 1017.74 1017.83 1017.77 1017.58 1017.39 1017.54 1017.52 1017.68 1017.71 1017.67 1017.87 1018.21 1018.57 1018.77 1018.97 1019.33 1019.30 1019.29 1019.52 1019.67 1019.67 1019.22 1019.05 1018.10 1017.91 1017.74 1017.64 1017.70 1017.54 1017.45 1017.33 1017.14 1017.11
1014.18 1014.77 1015.41 1015.81 1016.10 1016.27 1016.54 1017.01 1017.15 1017.25 1017.25 1016.92 1017.00 1017.08 1017.33 1016.91 1016.99 1017.02 1017.02 1017.03 1017.04 1017.25 1017.65 1017.65 1018.00 1018.31 1018.62 1018.79 1019.08 1018.98 1018.73 1018.76 1018.89 1018.28 1017.86 1017.57 1017.49 1017.39 1017.20 1016.90 1016.79 1016.67 1016.51
1013.98 1014.29 1014.52 1014.87 1015.20 1015.58 1016.01 1016.29 1016.52 1016.69 1016.54 1016.35 1016.70 1016.72 1016.81 1016.62 1016.46 1016.35 1016.42 1016.39 1016.56 1016.67 1016.78 1016.96 1017.19 1017.34 1017.49 1017.67 1017.91 1018.12 1018.27 1018.39 1018.46 1018.60 1017.70 1017.40 1017.20 1016.79 1016.50 1016.27 1015.96 1015.94 1015.82
1013.60 1013.77 1014.00 1014.39 1014.82 1015.32 1015.62 1015.96 1016.23 1016.29 1016.29 1016.53 1016.43 1016.55 1016.29 1016.00 1016.00 1015.83 1015.77 1015.77 1015.73 1016.04 1016.11 1016.15 1016.22 1016.49 1016.57 1016.68 1017.05 1017.30 1017.44 1017.32 1017.47 1017.77 1017.53 1016.88 1016.63 1015.96 1015.94 1015.65 1015.38 1015.10 1014.98
Wind_Speed
1 6 16 19 21 20 20 22 21 22 22 21 20 20 17 17 17 15 15 15 15 14 15 14 16 16 16 16 15 16 14 14 14 13 13 12 12 12 12 12 11 11 13
6 6 17 18 20 21 21 19 21 20 21 21 18 18 16 16 16 15 14 14 15 15 15 14 15 15 15 17 16 15 14 14 13 11 11 13 13 11 10 12 11 11 13
5 5 14 18 20 20 20 22 21 20 20 20 19 17 16 16 17 16 15 15 14 15 14 14 15 14 14 16 16 14 13 12 11 10 11 6 7 11 10 11 12 12 11
7 5 12 18 21 21 19 18 20 19 19 17 18 17 16 14 16 15 16 14 14 15 12 12 14 13 13 15 15 13 12 12 12 10 5 4 7 11 10 10 11 10 9
6 5 12 21 21 20 19 19 18 19 18 15 16 17 17 14 14 15 15 14 13 14 12 11 12 12 12 13 13 12 12 10 10 6 3 4 4 9 10 10 9 9 8
5 5 12 20 21 21 19 20 19 18 17 15 15 14 15 14 12 13 13 12 13 13 11 10 11 12 11 11 11 9 6 3 8 5 3 4 3 8 9 9 9 9 8
5 3 11 17 18 19 18 18 18 18 16 15 14 14 12 11 10 11 10 10 11 12 12 9 9 9 8 8 6 4 4 5 6 5 4 2 3 7 9 8 8 7 7
7 4 12 15 16 17 18 18 17 16 16 15 13 13 11 11 9 9 8 8 9 9 10 9 9 8 6 5 2 1 1 5 8 7 5 3 4 5 8 7 8 8 7
6 5 8 10 13 18 17 17 16 14 15 13 13 11 11 9 8 8 7 7 6 7 8 8 7 7 5 2 1 2 2 7 6 5 6 3 4 5 5 6 6 6 5
5 5 7 8 9 10 9 12 12 14 13 15 13 11 10 9 7 7 5 5 5 5 6 6 6 6 5 2 2 2 3 3 5 5 4 4 7 7 6 6 6 6 6
3 4 5 5 5 4 7 10 11 14 13 12 11 11 7 3 4 4 4 4 4 3 3 4 3 3 3 3 3 3 3 1 3 3 3 8 9 9 9 7 7 7 7
6 4 4 4 6 5 5 4 5 4 4 3 4 2 3 3 3 3 4 6 4 4 3 2 3 2 1 1 2 4 2 2 2 3 3 9 11 12 10 9 9 9 9
8 8 5 4 5 5 3 2 2 2 2 3 3 3 3 2 2 1 1 2 2 4 1 1 0 0 1 1 2 2 3 3 2 3 5 11 13 13 12 10 11 11 10
9 8 5 6 5 5 3 3 3 3 3 3 3 4 3 2 3 3 2 2 2 1 3 2 2 2 3 3 3 4 5 4 4 3 5 10 13 14 13 12 12 12 13
9 7 7 6 6 4 4 3 3 2 1 1 1 1 2 2 2 2 3 2 2 2 2 2 3 3 3 4 4 4 6 6 5 3 3 11 13 15 15 15 14 14 14
9 8 7 6 5 5 4 4 3 2 2 2 2 3 4 3 3 3 3 3 3 3 2 2 3 3 3 3 4 4 6 6 5 4 3 5 12 14 15 15 16 16 16
11 10 11 9 7 7 6 5 4 3 3 3 3 4 4 4 4 3 3 3 3 3 3 3 3 3 4 3 6 5 5 6 5 5 4 4 5 13 15 15 16 16 15
8 12 10 10 10 9 8 6 4 4 4 4 4 3 5 5 5 4 4 4 3 3 3 2 3 3 4 3 4 4 4 4 5 5 4 5 5 6 10 17 17 15 15
9 9 10 10 11 11 7 4 4 5 4 4 3 5 7 8 8 6 6 6 4 3 3 3 3 3 2 3 4 4 4 4 5 5 5 6 7 6 6 10 16 17 17
8 7 7 7 7 6 3 3 2 3 4 4 5 5 5 6 8 7 6 5 4 3 4 4 5 3 3 4 5 6 5 4 4 5 7 6 6 8 8 8 7 9 16
7 8 7 8 7 6 3 3 2 5 5 4 5 7 7 8 9 9 7 6 5 6 7 5 3 4 4 3 1 3 3 5 7 6 6 7 7 8 8 7 6 6 7
11 9 8 7 6 5 4 3 3 3 3 4 4 6 8 8 9 8 9 8 7 6 6 6 6 3 3 4 3 1 3 3 3 7 5 6 8 5 7 8 8 8 8
9 9 8 9 9 8 7 2 2 2 1 2 3 4 6 8 8 9 9 9 7 7 7 8 8 9 7 3 6 4 2 4 2 2 3 3 4 4 5 6 8 9 9
11 6 6 7 7 7 9 7 10 8 6 4 4 2 4 8 9 10 10 10 9 7 8 9 8 9 7 8 3 7 4 2 4 5 1 2 2 5 6 5 6 8 9
7 9 9 10 10 9 9 9 6 7 6 4 3 4 7 6 10 9 10 10 9 8 10 10 10 9 9 9 7 3 6 7 5 5 10 3 3 5 5 6 6 7 8
7 9 10 9 8 7 8 8 9 11 10 4 4 5 5 5 5 9 10 10 10 9 10 10 12 12 11 10 8 7 7 5 5 6 8 8 7 6 6 6 7 7 7
Wind_Direction
182 151 125 120 120 119 125 128 120 115 115 110 106 109 108 108 106 108 105 103 102 100 103 103 102 105 105 105 104 99 101 104 105 104 99 100 97 94 106 104 101 102 100
134 146 129 127 127 120 123 123 119 117 114 112 104 104 112 109 105 108 104 101 97 106 105 105 108 109 104 103 108 110 109 110 108 106 114 112 107 105 97 105 101 104 98
116 122 132 131 124 122 119 123 121 118 119 117 113 109 106 106 107 104 101 97 101 103 106 111 108 105 112 115 115 112 109 111 112 104 104 101 115 114 122 111 110 96 97
102 99 132 130 127 129 128 122 121 121 122 122 116 112 112 113 108 104 100 96 96 98 98 104 105 116 121 116 115 114 115 114 115 106 100 116 117 120 111 109 102 102 98
86 88 126 128 129 131 135 128 122 122 122 123 117 115 114 118 111 108 105 104 97 99 102 105 115 117 120 123 119 119 120 115 120 110 108 99 104 124 120 118 112 112 114
98 105 124 126 127 131 129 126 124 124 127 126 122 117 119 120 117 111 112 108 104 101 101 102 109 115 123 126 129 136 155 127 132 125 128 148 138 136 126 126 130 131 120
121 126 124 126 123 124 123 125 128 128 134 133 133 127 125 126 124 119 113 111 108 107 114 120 121 120 129 127 134 154 209 212 147 147 155 157 188 149 148 148 148 149 148
136 139 129 130 130 128 125 130 129 137 135 138 144 142 137 137 133 120 119 116 113 116 119 127 133 134 137 131 138 246 291 155 152 152 162 175 259 191 174 161 160 165 163
145 143 134 138 140 135 134 137 143 144 147 152 153 150 144 149 143 137 133 122 121 122 125 129 139 137 140 165 215 354 6 152 151 156 165 178 228 208 191 185 190 175 171
117 131 149 160 147 144 141 141 149 154 167 160 158 157 155 163 151 137 132 132 140 132 127 131 147 151 158 220 263 317 352 192 165 171 177 188 205 209 219 203 204 208 195
111 104 142 127 115 121 137 159 166 167 176 171 166 167 174 146 133 154 158 179 179 175 158 151 146 169 177 214 280 283 7 38 189 228 198 200 204 215 213 222 214 215 213
157 132 152 134 118 106 142 154 153 168 137 141 148 156 137 131 155 174 190 218 201 218 213 197 178 199 216 285 294 346 326 322 277 256 242 219 209 215 221 221 227 226 229
162 174 168 120 124 135 127 122 143 140 145 141 146 157 177 162 200 209 213 289 278 245 243 250 148 168 218 250 281 294 296 295 271 274 265 222 217 217 224 225 224 233 236
166 180 156 152 146 169 150 169 155 167 167 167 173 193 178 181 209 238 234 239 250 235 239 233 199 223 221 232 237 265 263 270 276 261 254 233 215 217 226 229 230 231 237
172 180 172 159 163 170 152 168 159 185 163 173 148 187 182 206 223 261 274 253 258 243 216 228 244 235 255 257 250 242 261 266 266 257 249 236 218 214 224 226 232 235 238
173 183 173 173 172 163 168 180 175 145 185 156 190 210 199 205 221 230 243 254 255 248 260 244 260 256 258 265 272 261 269 282 287 282 245 239 230 218 225 228 235 237 236
187 176 186 176 165 178 184 189 180 172 187 191 207 215 217 225 224 242 276 255 245 244 251 237 252 268 276 278 274 266 272 273 274 258 250 232 241 224 224 237 239 241 242
175 185 182 189 183 183 193 193 192 184 191 205 204 213 214 220 230 215 238 245 229 224 225 246 250 262 259 261 280 270 260 270 270 251 255 244 226 234 231 232 238 240 241
182 178 187 192 192 192 187 185 192 199 212 228 212 206 211 214 220 217 224 234 212 215 222 227 243 212 272 284 282 271 237 248 261 272 250 246 236 236 236 241 239 239 239
179 176 179 193 192 177 165 164 183 210 228 211 216 221 216 224 223 224 234 220 193 209 236 225 235 219 239 261 288 292 283 263 249 245 253 246 238 230 235 230 242 248 246
171 175 186 183 183 163 147 171 216 231 233 236 228 225 207 210 213 214 232 229 200 216 227 213 224 229 254 206 280 287 284 264 253 242 239 241 242 234 232 234 233 239 249
190 187 175 192 173 182 188 188 184 173 208 230 206 226 227 217 206 207 214 226 216 220 227 223 211 220 223 183 206 167 288 298 259 245 240 241 242 242 240 239 241 239 242
197 188 187 183 188 184 180 179 151 153 200 189 221 233 227 225 215 213 214 218 215 203 218 218 214 214 240 200 201 179 255 242 319 311 259 250 250 235 238 238 242 239 237
206 166 184 182 184 192 179 189 207 225 229 221 203 219 257 223 229 222 221 220 221 217 223 222 218 216 206 231 198 222 247 176 218 293 267 309 252 230 235 242 242 245 240
170 182 190 186 197 197 192 201 193 224 243 229 227 235 238 225 225 226 225 225 226 225 230 229 228 213 210 230 214 180 214 230 219 239 279 263 264 256 250 241 238 245 243
177 182 189 193 204 181 188 191 201 218 240 236 249 254 257 247 228 220 225 227 229 225 232 233 235 229 225 226 228 217 219 210 193 210 237 262 256 269 247 249 245 247 246